Flag for Germany Weather past 2 weeks in Berlin, Berlin, Germany

Now
42 °F

Quite cool.


Feels Like: 38 °F
Forecast: 26 / 35 °F
Wind: 7 mph from West

Location: Berlin-Tempelhof

Current Time: Dec 25, 2014 at 2:00:35 PM

Latest Report: Dec 25, 2014 at 1:00 PM


Visibility: N/A

Pressure: 29.95 "Hg

Humidity: 86%

Dew point: 38 °F

Location of BerlinLocation

Historic Weather in Berlin — Graph

°F

Berlin temperature yesterday

Maximum temperature yesterday: 52 °F (at 12:00 AM)
Minimum temperature yesterday: 42 °F (at 11:00 PM)
Average temperature yesterday: 47 °F

Past Weeks' High & Low Weather Summary

 TemperatureHumidityPressure
High54 °F (Dec 19, 7:00 AM)98% (Dec 18, 12:00 AM)30.24 "Hg (Dec 18, 12:00 AM)
Low33 °F (Dec 17, 7:00 AM)64% (Dec 20, 12:00 PM)29.38 "Hg (Dec 12, 7:00 PM)
Average43 °F85%29.84 "Hg
* Reported Dec 10 1:00 PM — Dec 25 1:00 PM, Berlin, Weather by CustomWeather, © 2014

Note: Actual official high and low records may vary slightly from our data, if they occured in-between our weather recording intervals... More about our weather records

Advertising

Berlin weather history for previous 24 hours

 ConditionsComfort  
Time TempWeatherWind HumidityBarometerVisibility
1:00 PM
Dec 25
42 °FQuite cool.7 mph86%29.95 "HgN/A
12:00 PM43 °FQuite cool.7 mph77%29.96 "HgN/A
11:00 AM43 °FQuite cool.7 mph73%29.96 "HgN/A
10:00 AM40 °FQuite cool.6 mph80%29.96 "HgN/A
9:00 AM39 °FChilly.6 mph82%29.97 "HgN/A
8:00 AM37 °FChilly.3 mph88%29.98 "HgN/A
7:00 AM37 °FChilly.3 mph89%29.97 "HgN/A
6:00 AM39 °FChilly.5 mph86%29.97 "HgN/A
5:00 AM40 °FQuite cool.6 mph83%29.97 "HgN/A
4:00 AM40 °FChilly.5 mph85%29.98 "HgN/A
3:00 AM40 °FChilly.6 mph87%29.97 "HgN/A
2:00 AM40 °FChilly.5 mph87%29.96 "HgN/A
1:00 AM40 °FQuite cool.6 mph88%29.95 "HgN/A
12:00 AM41 °FQuite cool.6 mph89%29.94 "HgN/A
11:00 PM
Dec 24
42 °FQuite cool.6 mph88%29.92 "HgN/A
10:00 PM43 °FQuite cool.6 mph87%29.91 "HgN/A
9:00 PM44 °FQuite cool.6 mph89%29.89 "HgN/A
8:00 PM45 °FQuite cool.5 mph90%29.87 "HgN/A
7:00 PM45 °FCool.6 mph88%29.86 "HgN/A
6:00 PM46 °FCool.7 mph93%29.84 "HgN/A
5:00 PM46 °FCool.7 mph93%29.82 "HgN/A
4:00 PM46 °FCool.6 mph90%29.81 "HgN/A
3:00 PM47 °FCool.6 mph86%29.81 "HgN/A
2:00 PM48 °FCool.8 mph81%29.80 "HgN/A
Weather by CustomWeather, © 2014

See weather overviewHow to use our weather pages